Find Local Weather

World > North America > United States > Pennsylvania

Erie, Pennsylvania Regional Weather

Lat: 42.13N, Lon: 80.09W
Wx Zone: PAZ001
Feedback
Expires:201806240000;;007736
ASUS41 KPHI 232313
RWRPHI

REGIONAL WEATHER ROUNDUP
NATIONAL WEATHER SERVICE MOUNT HOLLY NJ
700 PM EDT SAT JUN 23 2018

NOTE:  "FAIR" INDICATES FEW OR NO CLOUDS BELOW 12,000 FEET WITH NO
SIGNIFICANT WEATHER AND/OR OBSTRUCTIONS TO VISIBILITY.

 * = STATION DOES NOT REPORT PRECIPITATION (E.G. RAIN, SNOW, ETC.) 
        OR FOG.


PAZ001-021-NYZ056-072-MDZ011-DCZ001-240000-
OTHER NEARBY LOCATIONS
  
CITY           SKY/WX    TMP DP  RH WIND       PRES   REMARKS
HARRISBURG     CLOUDY    72  68  87 NE3       29.78S                  
STATE COLLEGE  CLOUDY    68  66  94 SE5       29.79R                  
WILLIAMSPORT   CLOUDY    71  64  78 E5        29.76S                  
BINGHAMTON     FAIR      68  62  81 S9        29.77F                  
NEW YORK CITY  CLOUDY    66  60  81 NE5       29.84F                  
BALTIMORE      PTSUNNY   78  71  79 E5        29.78S                  
WASHINGTON DC  PTSUNNY   79  70  74 S6        29.79R                  

$$
  

SKY/WX - Weather  TMP - Temperature  DP - Dewpoint  RH - Relative Humidity
WIND - Wind Direction/Speed PRES - Barometric Pressure